Content
SEND FEEDBACK

Daily
Averages
Monthly
Summary
Mexico

SAN MARTINIANO, QUINTANA ROO


Home > North America > Mexico > Quintana Roo
Elevation: 49 feet     Latitude: 20 47N     Longitude: 087 16W

WEATHER
 
SELECT A DAY
Number of Records: 202,534;   Date Range: 2/21/06 - 10/30/14
 
SHARE

PRINT THIS DATA

[ ← Previous Day ]
WEATHER ALMANAC - FEBRUARY 21, 2014
[ Next Day → ]
[ °C ]   °F
Weather ElementAverageHighLow
Temperature75.4 °F84.2 °F (12:15 pm)68 °F (2:35 am)
Dewpoint39 °F73.4 °F (9:55 pm) (7:00 pm)
Humidity70.7 %100 % (1:55 am)48 % (1:15 pm)
Barometer30.07 in30.10 in (11:35 pm)30.03 in (4:55 pm)
Wind Speed8.2 mph17.3 mph (10:55 am)
Wind Gust21.9 mph (10:35 am)
Weather ElementAverage
Visibility9.2 mi
Wind DirectionSSE (174.1 °)

Weather ElementTotal
Precipitation---
Cooling Degree Days11.1 (Base 65)
Growing Degree Days26.1 (Base 50)
Averaged from 71 records on February 21, 2014
WEATHER CONDITIONS BREAKOUT
WIND DIRECTION BREAKOUT
WEATHER BY HOUR - FEBRUARY 21, 2014
[ °C ]   °F
Local TimeTemperatureDewpointHumidityBarometerVisibilityWind DirectionWind SpeedGust SpeedPrecipitationEventsConditions
12:35 AM71.6 °F64.4 °F78 %30.09 in10.0 miSSE (150°)5.8 mphClear
12:55 AM71.6 °F66.2 °F83 %30.09 in10.0 miSE (140°)5.8 mphClear
1:15 AM71.6 °F66.2 °F83 %30.08 in10.0 miSE (140°)5.8 mphClear
1:35 AM69.8 °F68.0 °F94 %30.08 in10.0 miSE (130°)4.6 mphClear
1:55 AM69.8 °F69.8 °F100 %30.07 in10.0 miSE (130°)3.5 mphClear
2:15 AM69.8 °F0.0 °F30.07 in10.0 miSE (130°)3.5 mphClear
2:35 AM68.0 °F0.0 °F30.06 in10.0 miESE (110°)3.5 mphClear
2:55 AM68.0 °F0.0 °F30.07 in10.0 miCalmClear
3:15 AM68.0 °F0.0 °F30.07 in10.0 miCalmClear
3:35 AM68.0 °F0.0 °F30.07 in10.0 miSE (130°)3.5 mphClear
3:55 AM68.0 °F0.0 °F30.06 in10.0 miSE (130°)4.6 mphClear
4:15 AM68.0 °F0.0 °F30.07 in10.0 miSSE (150°)3.5 mphScattered Clouds
4:35 AM68.0 °F0.0 °F30.06 in7.0 miSE (140°)3.5 mphScattered Clouds
4:55 AM68.0 °F0.0 °F30.06 in7.0 miSSE (150°)3.5 mphScattered Clouds
5:15 AM68.0 °F0.0 °F30.06 in7.0 miSSE (150°)4.6 mphMostly Cloudy
5:35 AM68.0 °F0.0 °F30.06 in7.0 miSSE (150°)4.6 mphMostly Cloudy
5:55 AM69.8 °F0.0 °F30.07 in7.0 miSSE (150°)5.8 mphOvercast
6:15 AM69.8 °F0.0 °F30.07 in5.0 miSSE (160°)6.9 mphHaze
6:35 AM69.8 °F0.0 °F30.07 in4.0 miSouth (170°)11.5 mphHaze
6:55 AM71.6 °F0.0 °F30.08 in4.0 miSouth (170°)11.5 mphHaze
7:15 AM71.6 °F0.0 °F30.08 in5.0 miSouth (170°)8.1 mphHaze
7:35 AM71.6 °F0.0 °F30.08 in7.0 miSouth (170°)10.4 mph18.4 mphOvercast
7:55 AM71.6 °F0.0 °F30.09 in10.0 miSouth (170°)10.4 mphOvercast
8:15 AM73.4 °F0.0 °F30.09 in10.0 miSouth (170°)9.2 mphOvercast
8:35 AM73.4 °F0.0 °F30.09 in10.0 miSouth (180°)13.8 mphOvercast
8:55 AM73.4 °F0.0 °F30.09 in10.0 miSouth (180°)11.5 mph16.1 mphOvercast
9:15 AM75.2 °F0.0 °F30.08 in10.0 miSouth (170°)12.7 mph20.7 mphOvercast
9:35 AM77.0 °F0.0 °F30.08 in10.0 miSouth (170°)8.1 mph16.1 mphOvercast
9:55 AM78.8 °F0.0 °F30.08 in10.0 miSouth (190°)11.5 mphOvercast
10:15 AM80.6 °F69.8 °F70 %30.09 in10.0 miSouth (180°)16.1 mphOvercast
10:35 AM80.6 °F69.8 °F70 %30.09 in10.0 miSouth (190°)15.0 mph21.9 mphOvercast
10:55 AM80.6 °F68.0 °F65 %30.09 in10.0 miSSW (200°)17.3 mphOvercast
11:15 AM80.6 °F68.0 °F65 %30.09 in10.0 miSSW (210°)12.7 mph20.7 mphMostly Cloudy
11:35 AM82.4 °F68.0 °F62 %30.08 in10.0 miSSW (200°)13.8 mph19.6 mphMostly Cloudy
11:55 AM82.4 °F66.2 °F58 %30.08 in10.0 miSSW (210°)9.2 mph18.4 mphMostly Cloudy
12:15 PM84.2 °F66.2 °F55 %30.07 in10.0 miSSW (200°)16.1 mph20.7 mphMostly Cloudy
12:35 PM84.2 °F64.4 °F51 %30.07 in10.0 miSW (230°)12.7 mph17.3 mphMostly Cloudy
12:55 PM84.2 °F64.4 °F51 %30.06 in10.0 miSW (220°)12.7 mph19.6 mphScattered Clouds
1:15 PM84.2 °F62.6 °F48 %30.05 in10.0 miSW (220°)15.0 mph18.4 mphMostly Cloudy
1:35 PM84.2 °F62.6 °F48 %30.05 in10.0 miSW (230°)13.8 mph19.6 mphScattered Clouds
1:55 PM82.4 °F64.4 °F54 %30.04 in10.0 miWSW (240°)11.5 mph18.4 mphScattered Clouds
2:15 PM82.4 °F64.4 °F54 %30.04 in10.0 miSW (220°)12.7 mph19.6 mphScattered Clouds
2:35 PM82.4 °F64.4 °F54 %30.04 in10.0 miSW (220°)11.5 mph18.4 mphScattered Clouds
2:55 PM80.6 °F64.4 °F58 %30.04 in10.0 miSW (220°)13.8 mph17.3 mphClear
3:15 PM80.6 °F66.2 °F61 %30.04 in10.0 miSW (220°)11.5 mphScattered Clouds
3:35 PM80.6 °F66.2 °F61 %30.04 in10.0 miSW (230°)9.2 mph18.4 mphScattered Clouds
3:55 PM80.6 °F66.2 °F61 %30.05 in10.0 miSW (220°)12.7 mph18.4 mphScattered Clouds
4:15 PM78.8 °F68.0 °F69 %30.05 in10.0 miSW (220°)12.7 mph18.4 mphScattered Clouds
4:35 PM78.8 °F68.0 °F69 %30.04 in10.0 miSSW (210°)11.5 mph21.9 mphScattered Clouds
4:55 PM78.8 °F68.0 °F69 %30.03 in10.0 miSW (220°)9.2 mphScattered Clouds
5:15 PM77.0 °F68.0 °F74 %30.04 in10.0 miSW (220°)8.1 mph18.4 mphScattered Clouds
5:35 PM77.0 °F68.0 °F74 %30.05 in10.0 miSW (230°)6.9 mphScattered Clouds
5:55 PM77.0 °F69.8 °F78 %30.04 in10.0 miSW (230°)10.4 mphLight Drizzle
6:15 PM77.0 °F69.8 °F78 %30.05 in10.0 miSW (230°)9.2 mphMostly Cloudy
6:35 PM77.0 °F68.0 °F74 %30.05 in10.0 miSSW (210°)8.1 mphOvercast
6:55 PM77.0 °F68.0 °F74 %30.03 in10.0 miSouth (190°)9.2 mphMostly Cloudy
7:15 PM77.0 °F68.0 °F74 %30.03 in10.0 miSSW (210°)11.5 mph17.3 mphScattered Clouds
7:35 PM77.0 °F69.8 °F78 %30.04 in10.0 miSSW (210°)8.1 mphMostly Cloudy
7:55 PM75.2 °F69.8 °F83 %30.04 in10.0 miSW (220°)4.6 mphOvercast
8:15 PM75.2 °F69.8 °F83 %30.04 in10.0 miCalmOvercast
8:35 PM75.2 °F69.8 °F83 %30.05 in10.0 miSSW (210°)4.6 mphOvercast
8:55 PM75.2 °F69.8 °F83 %30.06 in10.0 miSSW (200°)3.5 mphOvercast
9:15 PM75.2 °F71.6 °F89 %30.07 in10.0 miSSW (210°)5.8 mphOvercast
9:35 PM75.2 °F71.6 °F89 %30.07 in10.0 miSouth (190°)5.8 mphOvercast
9:55 PM75.2 °F73.4 °F94 %30.07 in10.0 miSSE (160°)3.5 mphOvercast
10:15 PM75.2 °F0.0 °F30.08 in10.0 miCalmOvercast
10:35 PM75.2 °F0.0 °F30.09 in7.0 miSouth (170°)4.6 mphOvercast
10:55 PM75.2 °F0.0 °F30.09 in7.0 miSouth (190°)4.6 mphOvercast
11:15 PM75.2 °F0.0 °F30.09 in7.0 miSSW (210°)4.6 mphOvercast
11:35 PM73.4 °F0.0 °F30.10 in7.0 miSSW (210°)4.6 mphOvercast
11:55 PM73.4 °F0.0 °F30.09 in7.0 miCalmOvercast
Hourly data recorded from KPCM, located miles away from San Martiniano, Quintana Roo







STORIES FROM OUR PARTNERS